Location: Toronto
(43.6667°N, 79.4167°W)
Time: 11:44:45
(UTC-04:00)

X-37B - Pass Details

Date: 27 June 2021
Orbit: 383 x 392 km, 45.0° (Epoch: 01 July)

Event Time Altitude Azimuth Distance (km) Brightness Sun altitude
Rises 23:35:39 0° 280° (W) 2,257 5.0 -18.8°
Reaches altitude 10° 23:37:43 10° 282° (WNW) 1,402 3.9 -19.0°
Maximum altitude 23:40:52 72° 7° (N) 405 0.7 -19.2°
Enters shadow 23:41:13 63° 59° (ENE) 432 0.7 -19.3°
